Theta_e
322 319 318 320 323 323 323 323 324 325 323 320 329 328 328 326 326 329 332 332 331 325 327 327 327 326 322 318 315 319 327 332 331 333 328 319 312 312 314 316 325 328 321 322 314 311 311 313 319
320 318 318 321 325 322 321 322 326 324 322 324 324 325 325 329 333 331 332 331 329 326 329 326 320 322 318 315 315 318 330 330 333 332 321 313 310 311 316 328 328 329 324 319 316 318 321 326 327
318 317 320 324 323 322 320 320 326 322 321 321 324 326 326 329 330 333 332 330 327 326 331 325 317 315 312 310 310 314 330 332 333 329 317 310 309 310 312 318 325 328 324 320 314 316 325 326 325
316 317 318 324 323 319 319 319 322 324 319 319 325 325 330 327 332 332 331 328 327 331 332 324 318 316 315 314 312 312 322 317 322 318 314 310 308 309 313 316 316 327 328 320 322 326 325 322 322
316 319 322 321 320 318 316 319 321 324 321 321 322 325 329 326 330 331 329 326 329 331 330 321 318 319 320 318 316 314 313 314 315 314 313 311 309 308 309 311 310 322 325 322 326 325 323 320 316
318 320 323 322 320 318 319 318 320 321 319 321 323 325 329 326 330 330 326 327 331 330 326 321 319 319 321 322 320 318 317 316 316 316 315 314 311 309 309 308 311 326 326 325 324 322 320 316 315
320 322 323 321 320 320 320 317 319 319 319 321 323 323 328 332 329 329 326 329 332 331 329 330 323 320 319 321 322 321 320 319 318 318 317 315 313 311 309 309 308 322 327 325 320 318 317 317 317
318 320 320 319 320 320 319 317 316 318 319 318 323 321 326 333 329 330 327 329 332 331 330 332 332 326 321 319 322 323 323 322 321 321 318 316 315 312 311 310 309 311 326 322 313 314 315 316 317
318 322 322 320 319 319 316 319 314 315 317 320 322 320 326 327 329 330 328 329 331 331 331 331 332 331 327 323 321 322 323 323 322 322 321 319 317 315 314 312 312 312 318 312 311 312 313 314 314
319 321 322 319 318 319 317 318 317 317 317 317 319 318 324 329 329 329 329 330 330 330 330 330 331 331 330 328 325 323 323 323 323 323 323 321 320 318 317 316 315 314 315 314 312 312 312 313 314
316 320 317 315 315 316 317 316 315 317 318 318 318 317 320 329 333 331 330 330 329 329 329 329 329 330 330 329 328 327 325 324 324 324 324 323 322 321 319 319 318 317 317 317 315 314 315 315 315
317 313 314 314 314 314 317 315 316 316 317 315 316 316 317 325 332 331 331 331 329 329 329 329 329 329 328 329 329 328 328 327 326 325 324 324 324 323 322 322 321 320 320 319 318 318 318 319 319
316 314 313 312 313 313 314 314 316 315 314 314 315 315 317 325 332 332 332 331 329 330 330 330 331 331 331 329 329 328 328 328 327 327 326 325 325 324 324 323 323 322 321 320 319 320 319 319 319
312 314 313 312 312 312 314 313 312 312 313 313 314 315 316 321 328 331 329 329 328 330 331 332 331 332 332 331 331 330 329 328 328 328 327 327 326 326 325 324 324 323 322 321 320 320 320 319 319
311 315 314 312 312 313 312 313 314 310 311 311 312 314 315 316 321 321 322 324 324 325 329 328 327 329 329 329 328 328 328 329 328 328 328 328 327 327 327 326 325 325 324 323 322 320 319 319 319
312 314 316 311 312 312 311 316 309 310 310 311 312 312 313 314 316 319 322 322 324 325 323 326 326 327 327 329 329 328 328 329 328 327 327 328 328 328 328 327 327 325 324 323 322 321 321 320 319
312 314 313 309 311 312 312 314 311 310 311 313 313 312 312 312 313 315 317 319 321 322 325 325 326 327 328 328 329 330 330 330 330 330 329 328 327 327 327 327 327 326 325 325 324 322 322 322 321
314 312 310 311 312 312 313 314 313 312 311 314 313 313 312 312 312 312 313 314 315 318 320 323 326 326 328 330 331 332 331 331 331 331 330 330 329 328 328 328 328 326 326 325 325 325 323 323 322
313 311 312 310 311 313 313 314 314 313 311 313 312 311 310 311 311 311 312 313 313 314 316 318 321 324 328 329 331 332 331 330 330 330 330 330 330 330 330 330 330 328 327 326 327 327 326 325 324
311 311 312 312 310 312 312 314 314 309 309 308 308 308 308 309 310 310 310 311 312 312 313 314 318 320 323 325 327 328 329 329 330 330 329 330 331 331 331 333 332 330 329 328 328 327 327 327 327
311 312 312 313 309 309 309 313 310 308 309 309 309 308 309 309 310 311 311 312 312 311 311 312 313 314 316 320 323 324 326 326 326 327 327 326 329 330 330 332 329 328 327 328 328 328 328 327 327
312 310 311 311 313 313 309 312 311 309 311 311 311 311 310 310 311 312 312 313 313 312 311 311 311 312 312 312 315 318 320 322 324 327 327 328 328 328 329 330 331 327 326 327 327 326 327 326 326
311 310 311 311 313 313 312 312 312 309 313 312 311 310 310 310 310 311 312 312 312 313 313 313 313 312 312 311 312 313 315 322 322 325 325 325 325 325 330 328 326 325 326 326 326 326 326 326 325
308 310 310 311 312 312 312 312 311 310 313 312 310 309 309 309 310 311 312 312 312 313 313 313 313 313 313 313 313 313 314 315 317 318 321 323 324 325 326 326 325 325 325 325 324 328 325 325 325
309 313 312 313 313 312 306 309 311 308 311 312 311 310 309 309 311 312 312 313 313 313 313 313 313 313 313 313 313 313 313 313 314 314 315 316 317 317 320 322 323 324 324 325 325 324 324 323 324
311 312 314 315 312 311 306 311 311 307 307 310 310 309 309 309 311 311 312 312 312 312 313 313 313 313 312 312 312 312 312 312 312 312 311 312 312 312 312 313 314 315 316 318 320 323 321 324 322
310 310 309 309 302 313 311 310 308 307 309 309 309 309 309 309 310 311 311 311 311 312 312 312 312 312 312 312 312 312 312 312 312 312 312 312 312 311 311 311 311 311 311 311 312 312 313 315 317
309 309 311 310 316 315 309 310 313 310 311 311 309 310 309 309 310 310 310 310 311 311 311 311 311 310 309 308 308 307 307 306 307 307 308 309 310 310 311 311 311 311 311 310 310 310 310 311 311
308 309 308 310 311 318 313 311 310 311 312 311 310 309 309 308 309 309 309 309 310 310 309 309 309 308 308 307 306 305 305 305 305 305 306 306 307 308 308 309 309 309 309 310 310 310 310 309 309
308 310 310 312 311 308 311 314 308 312 312 311 309 308 308 308 309 309 309 309 309 309 308 308 308 307 306 305 304 304 303 303 303 303 303 303 303 304 304 306 307 307 308 308 308 308 308 308 308
Wind_Speed
4 4 5 4 2 1 4 4 1 5 5 2 5 1 2 4 4 3 9 15 20 22 22 19 12 12 10 10 12 13 14 9 8 9 9 10 11 11 12 14 16 16 14 16 15 15 15 17 18
4 3 3 2 2 4 5 4 6 4 4 7 5 3 2 4 3 5 14 18 21 22 19 15 13 11 10 9 9 14 14 11 9 7 10 10 10 10 13 16 16 13 11 14 14 16 18 17 16
3 2 1 1 1 3 3 5 6 6 7 4 3 3 2 3 3 14 9 22 23 21 16 14 13 11 11 11 10 11 15 11 8 7 8 9 9 9 10 12 16 12 11 11 13 16 16 14 13
5 2 4 3 2 3 2 6 7 12 2 2 4 5 3 2 10 7 18 25 23 17 14 14 11 9 11 12 11 12 12 6 6 4 5 7 9 9 10 9 12 15 10 8 15 14 11 9 10
8 3 2 2 2 3 1 5 9 10 5 4 3 5 4 5 12 11 22 24 21 16 16 14 12 11 10 12 11 11 10 7 6 5 6 7 8 9 7 8 10 13 8 11 13 9 8 7 9
3 2 4 5 4 2 2 7 9 6 5 5 4 6 4 10 13 17 23 22 18 19 16 14 12 11 10 10 11 9 8 7 6 6 7 7 8 8 7 7 9 13 8 7 9 7 6 7 8
3 2 3 5 6 4 4 10 9 7 6 5 3 3 5 11 16 20 24 22 18 18 17 14 13 12 10 10 9 9 7 6 6 7 7 7 7 7 6 6 7 11 8 6 6 4 3 6 7
4 2 6 3 8 5 9 8 3 5 4 5 5 3 5 14 17 23 24 22 19 18 17 14 13 12 10 9 9 8 7 6 5 6 6 6 6 6 5 5 6 6 8 6 6 3 3 4 5
6 4 6 6 8 7 10 6 4 4 5 5 6 1 7 19 20 25 25 22 18 18 18 15 14 13 11 10 11 10 9 8 6 5 5 4 4 4 4 4 5 4 4 4 4 3 2 2 3
4 3 6 5 5 7 13 6 9 5 5 5 6 7 11 20 23 28 28 26 24 22 20 18 16 15 14 12 11 10 9 8 7 5 4 3 2 2 3 3 3 3 2 3 3 3 2 2 2
3 3 5 5 4 9 14 7 7 5 4 7 8 11 12 20 22 25 27 26 26 24 22 21 19 18 16 15 14 12 11 10 8 7 6 5 4 3 2 2 2 2 2 1 3 3 2 2 2
5 3 3 4 5 8 12 11 6 8 1 4 7 8 13 20 22 24 24 25 27 26 24 23 21 20 19 17 16 15 13 11 10 9 8 6 5 3 3 3 2 2 1 1 2 2 2 1 2
3 6 5 5 6 7 11 5 3 6 9 7 4 9 13 16 18 19 20 21 24 25 24 24 23 21 20 19 18 17 16 14 12 11 10 9 8 7 7 6 5 5 4 3 2 2 1 0 1
4 8 9 4 4 4 4 3 2 3 4 10 10 7 11 16 18 18 20 21 24 24 24 22 23 22 21 20 19 18 18 16 16 15 13 12 12 11 10 9 8 7 6 6 5 5 4 4 6
10 6 4 3 1 2 2 3 6 2 4 0 8 9 9 14 17 18 18 20 21 22 22 23 21 21 21 20 18 16 15 17 18 17 17 16 15 14 13 12 11 8 9 9 10 9 8 7 10
4 3 6 2 1 1 3 5 1 1 5 5 5 8 11 11 15 17 19 19 20 22 22 22 21 21 21 21 19 17 16 14 14 15 17 17 16 16 17 16 14 13 13 12 13 15 15 18 16
1 7 7 3 1 1 3 3 3 1 3 5 2 2 6 10 13 15 18 20 22 23 24 24 23 23 22 22 21 21 20 19 18 17 15 14 16 17 18 18 16 17 18 18 17 18 19 21 23
9 6 3 5 5 2 4 9 4 3 4 6 5 4 6 8 8 11 15 18 22 24 24 25 26 25 25 24 25 25 26 25 24 22 19 17 18 18 20 21 19 20 21 22 23 23 24 24 24
10 7 7 2 2 3 6 8 8 4 6 8 7 6 7 9 9 12 15 17 19 20 24 26 26 26 28 27 28 29 30 28 27 26 24 22 22 22 23 23 24 23 26 26 28 29 29 28 29
9 8 5 3 2 2 2 9 6 4 2 4 8 4 4 4 3 6 10 14 19 23 24 25 27 26 27 27 28 29 29 29 29 29 27 27 26 25 25 26 27 27 27 30 32 34 35 37 36
2 8 6 4 4 3 2 5 2 3 6 5 5 2 3 4 5 6 5 4 8 15 22 22 22 22 24 25 25 26 27 27 26 27 27 26 26 26 26 28 29 28 29 30 31 32 36 44 45
6 4 7 11 6 2 2 3 3 2 5 6 6 6 8 11 12 12 13 12 10 7 7 12 15 16 18 19 23 24 25 26 25 25 26 26 25 25 26 27 27 28 28 29 29 31 35 34 42
3 7 7 4 4 1 2 4 4 5 4 4 7 10 12 15 17 20 21 19 17 15 13 10 7 7 10 12 14 16 18 17 20 19 21 22 24 24 26 27 27 28 28 28 31 32 34 35 38
13 10 7 4 2 4 4 4 5 7 6 7 9 12 14 16 20 23 24 24 24 22 21 18 14 13 9 6 4 4 6 9 12 13 16 17 19 21 22 23 25 27 28 30 31 35 37 39 39
3 14 3 3 4 5 2 3 2 5 7 14 17 14 12 14 18 21 22 22 21 21 21 20 19 19 17 13 10 7 3 3 6 9 12 15 17 18 20 22 23 25 27 32 35 34 40 38 41
13 7 6 7 5 4 2 6 2 2 4 13 12 13 14 14 17 20 21 20 19 18 17 17 16 16 14 12 11 10 8 7 7 7 9 10 11 13 15 17 20 23 26 29 33 35 38 38 41
7 7 4 7 2 2 5 3 4 5 7 14 15 15 14 15 17 18 18 18 18 17 17 16 15 15 13 13 12 10 10 9 9 10 10 11 12 13 15 17 18 20 22 24 26 30 34 37 41
5 11 4 1 6 5 5 5 6 14 17 16 16 17 14 15 17 18 18 17 17 17 16 15 14 13 13 12 10 10 10 10 11 12 12 13 14 15 16 18 20 22 23 25 28 30 31 34 36
5 5 2 2 2 5 5 6 3 22 23 21 21 18 16 15 17 18 19 17 16 15 14 13 11 9 8 8 9 10 11 11 12 13 14 16 17 18 20 21 22 23 23 24 27 30 32 35 37
2 5 10 6 7 2 1 3 2 15 26 25 21 19 17 18 19 18 17 15 13 11 9 8 6 6 7 8 9 11 11 12 13 15 16 18 19 20 21 22 24 25 27 27 28 29 30 34 37
Wind_Direction
318 319 336 7 216 209 136 143 359 149 152 83 126 203 35 59 334 7 144 151 150 145 140 144 152 152 139 122 121 121 121 124 109 104 88 77 84 94 94 95 100 92 89 95 103 99 99 95 92
294 309 348 35 242 188 126 137 185 117 105 123 109 115 126 73 74 140 143 151 154 150 147 150 144 150 142 136 133 124 124 123 126 99 66 68 83 94 93 94 92 101 94 94 92 103 98 93 98
259 230 358 23 232 125 117 178 150 122 120 161 133 64 40 69 82 147 160 155 157 158 156 155 141 137 132 126 131 131 126 140 139 89 64 69 89 102 96 101 105 103 85 74 86 99 96 106 105
197 130 58 253 155 91 79 163 154 145 163 160 127 108 82 121 143 157 155 158 160 162 160 153 141 134 128 127 123 121 126 127 117 99 81 84 97 106 102 99 105 112 104 81 95 94 103 112 117
172 124 178 175 150 102 162 152 167 163 145 150 161 121 111 160 157 153 158 160 163 165 158 153 143 140 138 127 123 127 138 140 114 101 89 88 94 102 106 93 91 110 105 100 100 102 105 92 98
148 125 204 187 134 118 159 164 165 172 158 157 158 141 123 154 161 160 164 164 166 165 158 152 145 143 139 135 128 130 138 136 123 103 88 86 91 97 100 85 94 103 122 113 119 110 91 85 82
145 192 170 161 128 138 147 161 173 174 159 170 155 145 134 155 164 167 168 169 168 173 169 165 160 156 152 148 143 143 145 139 123 110 98 91 90 93 103 96 101 128 144 143 112 107 70 58 59
126 176 155 196 158 126 150 161 161 189 159 164 168 178 157 173 167 168 173 175 176 181 184 181 179 170 166 161 159 162 164 158 144 126 103 93 91 96 99 91 87 108 123 115 119 115 87 58 40
155 209 183 166 167 136 154 167 160 176 141 167 188 126 151 170 170 171 175 182 185 190 191 194 195 189 184 178 174 179 181 179 170 145 122 103 92 93 95 95 80 86 131 104 114 127 92 53 28
192 217 183 168 149 145 160 174 154 172 152 194 189 180 171 174 178 179 182 187 194 196 199 201 201 201 199 196 192 190 195 196 189 181 166 141 133 138 139 127 117 114 88 91 95 115 103 69 43
180 200 156 168 151 150 151 159 161 172 196 208 216 190 185 182 184 189 191 196 199 202 208 206 207 208 209 209 208 208 210 210 209 209 206 203 197 186 180 173 157 126 83 68 104 116 110 90 70
169 82 115 145 170 144 156 141 169 202 170 160 205 193 198 192 195 194 199 198 202 209 213 214 213 213 214 217 218 220 222 223 225 226 227 227 231 235 238 238 230 208 217 230 135 126 113 83 55
133 142 100 127 143 121 140 132 160 217 221 217 183 210 206 201 206 204 204 208 211 214 218 222 221 221 222 223 227 228 230 231 235 239 241 243 248 251 250 248 251 243 242 240 220 212 200 27 332
121 131 123 130 123 121 154 148 191 203 187 231 222 208 207 209 208 210 209 211 215 219 221 226 228 225 226 229 231 234 237 238 241 244 248 248 248 249 251 252 253 259 254 250 242 239 246 283 298
133 112 119 75 96 95 152 212 220 181 210 129 207 210 214 215 213 219 220 220 221 221 224 229 226 224 226 228 233 235 237 239 241 245 246 248 250 251 252 252 253 262 266 264 264 252 254 271 285
121 126 174 106 216 11 240 228 178 316 199 187 199 215 222 224 222 222 224 226 227 228 228 232 232 230 230 232 237 241 246 249 247 245 248 249 252 253 255 256 256 252 255 258 262 270 270 268 272
202 188 202 177 190 128 239 264 82 263 92 154 155 227 233 233 236 236 235 234 232 232 235 234 236 236 238 239 242 247 251 255 256 254 255 254 253 254 256 256 257 256 254 256 257 260 265 272 273
179 168 179 194 168 183 199 244 200 261 277 272 290 288 273 261 246 236 235 236 238 238 235 236 238 239 241 243 246 249 253 255 258 259 259 260 260 258 257 258 256 261 261 263 263 261 260 265 267
154 148 157 142 83 200 236 264 265 291 284 286 293 299 282 277 263 247 235 235 236 236 235 235 236 239 242 242 244 246 250 255 260 264 267 265 263 262 261 262 262 260 262 268 265 263 265 264 266
145 149 134 107 64 204 210 268 282 350 12 327 307 307 291 278 263 232 230 231 235 233 231 233 235 238 240 244 246 250 254 258 262 267 270 269 269 269 270 267 266 268 269 267 265 265 265 263 265
152 172 169 150 140 86 282 247 201 83 80 57 34 50 79 111 110 123 144 189 227 232 228 230 233 239 243 244 246 250 251 257 258 261 267 272 273 273 273 272 273 274 276 277 279 279 276 268 265
177 178 137 134 165 182 319 240 155 103 80 64 66 78 93 103 104 106 103 100 98 114 187 221 230 236 238 239 243 247 255 260 264 267 273 275 277 277 279 279 277 275 278 277 279 280 280 281 278
138 140 122 120 101 172 200 249 141 159 130 90 87 95 99 105 103 101 99 97 96 99 104 118 152 198 220 229 236 243 246 254 260 258 265 274 278 280 277 276 278 280 279 279 277 274 277 275 278
141 109 77 78 105 226 179 243 188 181 165 144 126 112 108 108 107 103 100 97 93 92 94 97 102 106 106 117 149 208 241 255 264 265 265 262 261 271 277 276 277 281 282 281 282 280 279 277 278
171 156 128 175 194 234 30 208 317 149 133 152 140 126 116 112 110 108 107 104 101 98 95 95 95 96 93 86 83 79 51 331 306 299 291 285 280 275 269 267 266 269 275 280 282 279 280 279 280
182 193 173 180 190 167 88 222 222 158 130 148 140 133 126 119 114 109 106 105 104 101 100 98 96 96 93 90 81 73 62 46 20 359 344 329 318 309 301 294 287 283 276 269 265 266 270 275 275
174 208 86 104 30 164 194 231 234 163 168 164 154 147 139 129 122 115 111 107 104 102 96 91 88 87 81 75 69 60 48 33 19 7 354 343 329 320 312 305 300 297 294 290 284 278 275 272 272
208 145 145 124 159 214 201 250 208 181 181 174 166 159 147 137 127 120 115 110 107 103 98 94 88 83 76 66 54 42 27 14 2 351 342 337 331 323 317 311 306 301 297 293 290 288 284 281 279
145 182 95 131 193 188 184 228 219 187 180 174 168 162 154 146 136 129 122 116 110 105 102 94 88 76 63 45 31 17 6 1 354 345 338 334 330 326 324 321 318 315 309 303 297 293 290 287 286
325 177 179 190 199 247 4 246 315 187 173 168 164 164 159 154 145 137 131 125 123 118 106 93 72 45 28 14 4 356 352 346 342 340 338 335 334 331 327 323 320 317 316 313 308 303 299 294 291